STARLINK-36976, 68066

Orbit data source: Space-Track

STARLINK-36976, 68066 is a payload satellite owned by SpaceX/Seattle (US) in LEO that was launched on Mon, 02 Mar 2026 UTC via an FALCON 9 launch vehicle from the Air Force Eastern Test Range (AFETR). Payload-class satellites include a variety of spacecraft equipped with specific instruments for various scientific and technological missions. These include communications satellites like Starlink; space stations such as the ISS; scientific satellites like the Hubble; Earth observation satellites from companies like Planet Labs, Umbra, and HawkEye 360; GPS; miniature CubeSats for education and research; and military/defense satellites.

Loading next visibility...
Identifier
68066, 2026-041AC
Orbit
LEO
Country
Flag of USUS
Related business
Manufacturer
SpaceX/Seattle
Mission
Operational Commercial Communications
Bus & Motor
STARLINK V2MO, Unknown motor
Mass
575 kg wet, ~530 kg dry
Launch date (UTC)
2026-03-02 (2 months ago)
Launch vehicle
FALCON 9
Launch site
Air Force Eastern Test Range (AFETR)
Object type
Payload
Rocket body
Debris
Shape & HBR
Box + 2 Pan, 17.7 m
Radar Cross Section
36.964 m²

Expand to show TLE details & history
Last TLE update: 18 hours ago

TLE from 18 hours ago
0 STARLINK-36976
1 68066U 26041AC  26118.63967637  .00033148  00000-0  85678-3 0  9990
2 68066  53.1593 177.3083 0001183  67.4555 292.6575 15.38834392  9043
Epoch: 2026-04-28T15:21Z
TLE epoch observation values (Epoch: 2026-04-28T15:21:08.038Z)
Latitude
0.00001°
Longitude
90.41272°
Altitude
450.147 km
Speed
7.644 km/s
True Right ascension
11h 49m 13s
True Declination
0° 00' 00"
Sunlit
Object was in full shadow at epoch
Visualization orbit readout
Latitude
Unknown
Longitude
Unknown
Altitude
Unknown
Speed
Unknown
Apparent Right ascension
Unknown
Apparent Declination
Unknown
Sunlit
N/A
Visualization observer readout
Local Sidereal Time
17:09:45
Azimuth
Unknown
Elevation
Unknown
Doppler factor
Unknown
Orbital elements
Apogee altitude
450.62 km
Perigee altitude
449.005 km
Semi-major axis
6,827.949 km
Eccentricity
0.00012
Inclination
53.1593°
RAAN
177.3083°
Arg. of periapsis
67.4555°
True anomaly
292.64499°
Mean anomaly
292.6575°
Eccentric anomaly
292.65124°
Mean motion
3.84687 °/min
Orbital period
93.58 mins
BSTAR
0.00085678
Loading maneuver chart data...
Computing Atmospheric mass density...
Loading historical data...
Loading historical data...
Loading historical data...
Loading historical data...
Loading historical data...
Loading historical data...
Loading historical data...

Documentation

Showing up to 5 results
|